TimeCST,TemperatureF,Dew PointF,Humidity,Sea Level PressureIn,VisibilityMPH,Wind Direction,Wind SpeedMPH,Gust SpeedMPH,PrecipitationIn,Events,Conditions,WindDirDegrees,DateUTC
12:13 AM,21.2,21.2,100,30.03,2.0,SE,4.6,-,N/A,,Overcast,140,2013-02-26 06:13:00
12:33 AM,21.2,21.2,100,30.02,2.0,Calm,Calm,-,N/A,,Overcast,0,2013-02-26 06:33:00
12:54 AM,21.2,19.4,93,30.03,1.8,ESE,4.6,-,N/A,,Overcast,110,2013-02-26 06:54:00
1:13 AM,21.2,19.4,93,30.03,2.0,SE,3.5,-,N/A,,Overcast,140,2013-02-26 07:13:00
1:34 AM,21.2,19.4,93,30.04,3.0,Calm,Calm,-,N/A,,Overcast,0,2013-02-26 07:34:00
1:53 AM,21.2,19.4,93,30.05,3.0,SE,6.9,-,N/A,,Overcast,130,2013-02-26 07:53:00
2:13 AM,21.2,19.4,93,30.04,4.0,SSE,4.6,-,N/A,,Overcast,150,2013-02-26 08:13:00
2:33 AM,21.2,19.4,93,30.05,4.0,SE,4.6,-,N/A,,Overcast,130,2013-02-26 08:33:00
2:53 AM,21.2,19.4,93,30.05,4.0,SE,3.5,-,N/A,,Overcast,140,2013-02-26 08:53:00
3:13 AM,21.2,19.4,93,30.03,3.0,Calm,Calm,-,N/A,,Overcast,0,2013-02-26 09:13:00
3:33 AM,21.2,19.4,93,30.02,2.0,Calm,Calm,-,N/A,,Overcast,0,2013-02-26 09:33:00
3:53 AM,21.2,19.4,93,30.02,2.0,East,3.5,-,N/A,,Overcast,100,2013-02-26 09:53:00
4:13 AM,21.2,19.4,93,30.02,1.2,ESE,4.6,-,N/A,,Overcast,110,2013-02-26 10:13:00
4:33 AM,21.2,19.4,93,30.01,1.2,East,4.6,-,N/A,,Overcast,100,2013-02-26 10:33:00
4:53 AM,21.2,19.4,93,30.02,0.8,Calm,Calm,-,N/A,,Overcast,0,2013-02-26 10:53:00
5:13 AM,21.2,19.4,93,30.01,0.5,Calm,Calm,-,N/A,Fog,Light Freezing Fog,0,2013-02-26 11:13:00
5:33 AM,21.2,19.4,93,30.00,0.2,Calm,Calm,-,N/A,Fog,Light Freezing Fog,0,2013-02-26 11:33:00
5:53 AM,21.2,19.4,93,29.99,0.2,Calm,Calm,-,N/A,Fog,Light Freezing Fog,0,2013-02-26 11:53:00
6:14 AM,21.2,19.4,93,30.00,0.2,Calm,Calm,-,N/A,Fog,Light Freezing Fog,0,2013-02-26 12:14:00
6:33 AM,21.2,19.4,93,30.00,0.2,Calm,Calm,-,N/A,Fog,Light Freezing Fog,0,2013-02-26 12:33:00
6:53 AM,21.2,19.4,93,30.00,0.2,Calm,Calm,-,N/A,Fog,Light Freezing Fog,0,2013-02-26 12:53:00
7:13 AM,21.2,19.4,93,30.00,0.2,Calm,Calm,-,N/A,Fog,Light Freezing Fog,0,2013-02-26 13:13:00
7:34 AM,21.2,19.4,93,30.01,0.2,Calm,Calm,-,N/A,Fog,Light Freezing Fog,0,2013-02-26 13:34:00
7:54 AM,21.2,19.4,93,30.01,0.2,Calm,Calm,-,N/A,Fog,Light Freezing Fog,0,2013-02-26 13:54:00
8:14 AM,21.2,19.4,93,30.01,0.2,NE,3.5,-,N/A,Fog,Light Freezing Fog,40,2013-02-26 14:14:00
8:33 AM,21.2,19.4,93,30.01,0.2,Calm,Calm,-,N/A,Fog,Light Freezing Fog,0,2013-02-26 14:33:00
8:53 AM,21.2,21.2,100,30.01,0.2,Calm,Calm,-,N/A,Fog,Light Freezing Fog,0,2013-02-26 14:53:00
9:13 AM,21.2,19.4,93,30.01,0.2,Calm,Calm,-,N/A,Fog,Light Freezing Fog,0,2013-02-26 15:13:00
9:33 AM,21.2,19.4,93,30.01,0.2,ENE,4.6,-,N/A,Fog,Light Freezing Fog,70,2013-02-26 15:33:00
9:53 AM,21.2,21.2,100,30.02,0.2,Calm,Calm,-,N/A,Fog,Light Freezing Fog,0,2013-02-26 15:53:00
10:13 AM,23.0,21.2,93,30.02,0.2,East,3.5,-,N/A,Fog,Light Freezing Fog,80,2013-02-26 16:13:00
10:33 AM,21.2,21.2,100,30.02,0.2,ENE,3.5,-,N/A,Fog,Light Freezing Fog,70,2013-02-26 16:33:00
10:53 AM,23.0,21.2,93,30.02,0.2,NNE,3.5,-,N/A,Fog,Light Freezing Fog,30,2013-02-26 16:53:00
11:13 AM,23.0,21.2,93,30.03,0.5,NNE,3.5,-,N/A,Fog,Light Freezing Fog,20,2013-02-26 17:13:00
11:33 AM,23.0,21.2,93,30.02,0.5,NE,5.8,-,N/A,Fog,Light Freezing Fog,40,2013-02-26 17:33:00
11:53 AM,24.8,21.2,86,30.02,0.8,NE,5.8,-,N/A,,Overcast,50,2013-02-26 17:53:00
12:13 PM,24.8,21.2,86,30.02,0.5,NNE,6.9,-,N/A,Fog,Light Freezing Fog,30,2013-02-26 18:13:00
12:33 PM,24.8,21.2,86,30.02,1.2,NE,6.9,-,N/A,,Overcast,40,2013-02-26 18:33:00
12:53 PM,24.8,21.2,86,30.01,1.2,NE,9.2,-,N/A,,Overcast,40,2013-02-26 18:53:00
1:13 PM,24.8,21.2,86,30.00,1.5,NNE,5.8,-,N/A,,Overcast,30,2013-02-26 19:13:00
1:33 PM,24.8,21.2,86,29.99,2.0,NNE,5.8,-,N/A,,Overcast,20,2013-02-26 19:33:00
1:53 PM,24.8,21.2,86,29.99,2.0,North,6.9,-,N/A,,Overcast,360,2013-02-26 19:53:00
2:13 PM,26.6,21.2,80,29.98,2.5,North,9.2,-,N/A,,Overcast,350,2013-02-26 20:13:00
2:33 PM,26.6,21.2,80,29.98,3.0,North,10.4,-,N/A,,Overcast,350,2013-02-26 20:33:00
2:53 PM,26.6,23.0,86,29.98,3.0,North,10.4,-,N/A,,Overcast,360,2013-02-26 20:53:00
3:13 PM,26.6,23.0,86,29.97,3.0,North,11.5,-,N/A,,Overcast,360,2013-02-26 21:13:00
3:34 PM,26.6,23.0,86,29.98,3.0,North,12.7,-,N/A,,Overcast,360,2013-02-26 21:34:00
3:53 PM,26.6,23.0,86,29.98,3.0,North,11.5,-,N/A,,Overcast,360,2013-02-26 21:53:00
4:14 PM,26.6,23.0,86,29.97,3.0,North,11.5,-,N/A,,Overcast,360,2013-02-26 22:14:00
4:33 PM,26.6,23.0,86,29.98,4.0,North,9.2,-,N/A,,Overcast,360,2013-02-26 22:33:00
4:53 PM,26.6,24.8,93,29.98,4.0,North,11.5,-,N/A,,Overcast,350,2013-02-26 22:53:00
5:13 PM,26.6,23.0,86,29.99,3.0,NNW,11.5,-,N/A,,Overcast,340,2013-02-26 23:13:00
5:34 PM,26.6,23.0,86,29.99,4.0,NNW,12.7,-,N/A,,Overcast,340,2013-02-26 23:34:00
5:53 PM,26.6,23.0,86,29.98,3.0,NNW,12.7,-,N/A,,Overcast,340,2013-02-26 23:53:00
6:14 PM,24.8,21.2,86,29.98,4.0,NNW,11.5,-,N/A,,Overcast,340,2013-02-27 00:14:00
6:33 PM,24.8,21.2,86,29.99,4.0,NNW,12.7,-,N/A,,Overcast,330,2013-02-27 00:33:00
6:54 PM,23.0,21.2,93,29.99,4.0,NNW,11.5,-,N/A,,Overcast,340,2013-02-27 00:54:00
7:13 PM,23.0,21.2,93,30.00,2.5,NNW,16.1,-,N/A,,Overcast,340,2013-02-27 01:13:00
7:33 PM,21.2,19.4,93,30.00,2.0,NNW,11.5,-,N/A,,Overcast,330,2013-02-27 01:33:00
7:53 PM,19.4,19.4,100,30.00,4.0,NNW,10.4,-,N/A,,Mostly Cloudy,340,2013-02-27 01:53:00
8:13 PM,19.4,17.6,93,30.00,4.0,NNW,9.2,-,N/A,,Overcast,330,2013-02-27 02:13:00
8:34 PM,19.4,17.6,93,30.00,3.0,NW,10.4,-,N/A,,Overcast,320,2013-02-27 02:34:00
8:53 PM,19.4,17.6,93,30.00,3.0,NW,10.4,-,N/A,,Overcast,320,2013-02-27 02:53:00
9:13 PM,19.4,17.6,93,30.01,4.0,NW,11.5,-,N/A,,Overcast,320,2013-02-27 03:13:00
9:34 PM,19.4,17.6,93,30.00,3.0,NNW,10.4,-,N/A,,Overcast,330,2013-02-27 03:34:00
9:54 PM,19.4,17.6,93,30.00,4.0,NNW,11.5,-,N/A,,Mostly Cloudy,330,2013-02-27 03:54:00
10:13 PM,17.6,15.8,93,30.00,4.0,NNW,8.1,-,N/A,,Mostly Cloudy,340,2013-02-27 04:13:00
10:33 PM,17.6,15.8,93,30.00,4.0,NNW,8.1,-,N/A,,Mostly Cloudy,340,2013-02-27 04:33:00
10:53 PM,17.6,15.8,93,30.00,4.0,NNW,15.0,-,N/A,,Overcast,340,2013-02-27 04:53:00
11:13 PM,17.6,15.8,93,29.99,5.0,NNW,11.5,-,N/A,,Mostly Cloudy,340,2013-02-27 05:13:00
11:34 PM,17.6,15.8,93,30.00,7.0,NNW,11.5,-,N/A,,Scattered Clouds,340,2013-02-27 05:34:00
11:53 PM,17.6,15.8,93,30.00,4.0,NNW,12.7,-,N/A,,Scattered Clouds,340,2013-02-27 05:53:00